Location: Newark
(5.0949°S, 42.8042°W)
Time: 04:21:35
(UTC+00:00)

Hubble Space Telescope - Pass Details

Date: 29 September 2019
Orbit: 536 x 540 km, 28.5° (Epoch: 23 October)

Event Time Altitude Azimuth Distance (km) Brightness Sun altitude
Exits shadow 06:20:32 12° 67° (ENE) 1,680 3.9 -34.9°
Drops below altitude 10° 06:20:56 10° 71° (ENE) 1,776 4.1 -34.8°
Sets 06:23:50 0° 92° (E) 2,669 5.4 -34.0°
